QPF
0.01 0.02 0.05 0.04 0.04 0.05 0.05 0.04 0.04 0.05 0.06 0.05 0.05 0.04 0.04 0.03 0.03 0.03 0.03 0.03 0.03 0.02 0.02 0.02 0.03 0.03 0.04 0.04 0.03 0.03 0.03 0.03 0.03 0.02 0.02 0.02 0.03 0.03 0.03 0.02 0.03 0.04 0.04
0.01 0.02 0.04 0.04 0.04 0.05 0.04 0.03 0.03 0.03 0.05 0.05 0.06 0.05 0.05 0.04 0.05 0.03 0.03 0.03 0.03 0.04 0.04 0.03 0.02 0.02 0.03 0.03 0.02 0.02 0.01 0.01 0.01 0.01 0.01 0.01 0.02 0.02 0.02 0.03 0.03 0.04 0.05
0.01 0.02 0.04 0.05 0.04 0.05 0.05 0.04 0.04 0.04 0.05 0.07 0.07 0.07 0.06 0.05 0.05 0.04 0.04 0.04 0.04 0.03 0.04 0.04 0.03 0.02 0.02 0.02 0.02 0.01 0.01 0.01 0.01 0.00 0.00 0.00 0.02 0.02 0.02 0.02 0.03 0.03 0.04
0.01 0.02 0.04 0.05 0.05 0.04 0.05 0.04 0.04 0.04 0.04 0.05 0.07 0.07 0.07 0.07 0.06 0.06 0.04 0.05 0.05 0.04 0.03 0.04 0.04 0.02 0.01 0.01 0.01 0.01 0.01 0.01 0.01 0.00 0.00 0.00 0.01 0.02 0.03 0.02 0.02 0.03 0.03
0.01 0.01 0.03 0.05 0.05 0.04 0.04 0.05 0.05 0.05 0.05 0.06 0.06 0.06 0.07 0.08 0.08 0.08 0.06 0.06 0.05 0.04 0.03 0.03 0.03 0.02 0.01 0.01 0.01 0.02 0.01 0.01 0.01 0.00 0.00 0.00 0.01 0.02 0.03 0.02 0.02 0.03 0.03
0.01 0.01 0.03 0.06 0.06 0.06 0.05 0.05 0.05 0.05 0.05 0.06 0.06 0.06 0.06 0.07 0.07 0.06 0.07 0.06 0.05 0.03 0.03 0.02 0.02 0.01 0.01 0.01 0.02 0.02 0.01 0.01 0.00 0.00 0.00 0.00 0.00 0.03 0.04 0.03 0.04 0.04 0.04
0.01 0.01 0.02 0.04 0.04 0.04 0.05 0.04 0.04 0.05 0.05 0.04 0.05 0.06 0.05 0.06 0.06 0.06 0.07 0.07 0.07 0.05 0.04 0.03 0.03 0.02 0.01 0.01 0.01 0.01 0.01 0.01 0.00 0.00 0.00 0.00 0.00 0.02 0.04 0.05 0.05 0.05 0.06
0.01 0.02 0.02 0.02 0.02 0.03 0.03 0.04 0.05 0.05 0.04 0.04 0.04 0.05 0.05 0.05 0.06 0.06 0.07 0.08 0.08 0.05 0.03 0.03 0.04 0.03 0.01 0.01 0.01 0.01 0.01 0.01 0.00 0.00 0.00 0.00 0.01 0.01 0.03 0.04 0.05 0.05 0.06
0.01 0.01 0.02 0.02 0.03 0.03 0.04 0.04 0.04 0.04 0.05 0.04 0.04 0.05 0.06 0.05 0.05 0.06 0.06 0.06 0.06 0.04 0.02 0.02 0.02 0.02 0.02 0.01 0.01 0.01 0.01 0.01 0.01 0.00 0.00 0.00 0.01 0.01 0.02 0.03 0.06 0.06 0.08
0.01 0.01 0.01 0.02 0.03 0.03 0.04 0.04 0.05 0.05 0.04 0.04 0.03 0.04 0.05 0.05 0.05 0.05 0.05 0.04 0.05 0.03 0.02 0.02 0.02 0.01 0.01 0.01 0.01 0.01 0.01 0.01 0.01 0.00 0.00 0.01 0.01 0.02 0.02 0.03 0.05 0.06 0.08
0.02 0.01 0.01 0.02 0.02 0.03 0.04 0.05 0.05 0.05 0.04 0.03 0.03 0.04 0.04 0.04 0.05 0.05 0.04 0.04 0.05 0.05 0.04 0.03 0.02 0.01 0.00 0.00 0.01 0.01 0.01 0.01 0.01 0.00 0.00 0.01 0.02 0.03 0.03 0.04 0.04 0.06 0.06
0.01 0.02 0.01 0.02 0.02 0.03 0.04 0.04 0.04 0.04 0.04 0.03 0.03 0.04 0.04 0.04 0.05 0.05 0.05 0.04 0.04 0.04 0.04 0.04 0.03 0.02 0.01 0.00 0.00 0.00 0.01 0.01 0.02 0.01 0.01 0.02 0.05 0.06 0.06 0.05 0.05 0.05 0.04
0.01 0.01 0.01 0.02 0.02 0.02 0.03 0.04 0.05 0.04 0.04 0.03 0.03 0.03 0.03 0.03 0.04 0.06 0.05 0.05 0.05 0.04 0.04 0.03 0.02 0.01 0.01 0.00 0.00 0.00 0.01 0.00 0.01 0.01 0.01 0.03 0.04 0.05 0.07 0.07 0.05 0.05 0.04
0.01 0.01 0.01 0.01 0.02 0.02 0.02 0.03 0.05 0.05 0.04 0.03 0.03 0.03 0.03 0.02 0.03 0.06 0.08 0.06 0.05 0.04 0.04 0.03 0.03 0.02 0.01 0.01 0.01 0.01 0.01 0.01 0.01 0.01 0.01 0.02 0.03 0.04 0.06 0.07 0.06 0.06 0.05
0.01 0.01 0.02 0.01 0.02 0.02 0.02 0.03 0.04 0.05 0.05 0.04 0.03 0.03 0.03 0.03 0.02 0.04 0.08 0.09 0.06 0.05 0.04 0.03 0.04 0.04 0.03 0.02 0.01 0.01 0.01 0.01 0.01 0.01 0.01 0.02 0.03 0.03 0.04 0.05 0.06 0.07 0.07
0.01 0.01 0.01 0.02 0.02 0.02 0.02 0.03 0.03 0.03 0.04 0.04 0.04 0.04 0.04 0.03 0.03 0.03 0.07 0.10 0.09 0.07 0.06 0.05 0.03 0.04 0.05 0.04 0.03 0.01 0.01 0.01 0.01 0.01 0.01 0.02 0.02 0.03 0.03 0.04 0.05 0.05 0.07
0.02 0.02 0.02 0.02 0.02 0.03 0.03 0.03 0.04 0.04 0.04 0.05 0.05 0.04 0.04 0.04 0.04 0.04 0.05 0.09 0.10 0.09 0.08 0.06 0.05 0.04 0.03 0.04 0.04 0.02 0.02 0.01 0.01 0.01 0.01 0.01 0.02 0.02 0.02 0.03 0.04 0.04 0.06
0.01 0.01 0.02 0.02 0.02 0.02 0.03 0.03 0.04 0.04 0.04 0.03 0.04 0.05 0.05 0.06 0.06 0.07 0.07 0.08 0.10 0.10 0.10 0.07 0.05 0.03 0.03 0.03 0.03 0.03 0.03 0.02 0.02 0.01 0.01 0.01 0.01 0.02 0.02 0.02 0.03 0.03 0.04
0.01 0.01 0.02 0.02 0.02 0.02 0.02 0.03 0.03 0.04 0.04 0.04 0.03 0.04 0.05 0.06 0.07 0.08 0.08 0.09 0.09 0.09 0.10 0.10 0.06 0.04 0.03 0.03 0.04 0.04 0.03 0.03 0.02 0.02 0.02 0.01 0.01 0.02 0.02 0.02 0.02 0.02 0.03
0.01 0.01 0.01 0.02 0.02 0.03 0.03 0.03 0.03 0.03 0.04 0.05 0.03 0.03 0.04 0.05 0.06 0.07 0.06 0.06 0.06 0.08 0.10 0.11 0.10 0.07 0.05 0.04 0.04 0.04 0.04 0.03 0.02 0.02 0.02 0.02 0.02 0.03 0.03 0.02 0.02 0.02 0.02
0.01 0.01 0.01 0.01 0.02 0.02 0.02 0.02 0.02 0.02 0.03 0.04 0.05 0.04 0.03 0.03 0.04 0.07 0.07 0.05 0.05 0.06 0.07 0.09 0.11 0.10 0.08 0.06 0.06 0.06 0.05 0.04 0.03 0.02 0.02 0.03 0.02 0.02 0.02 0.03 0.03 0.02 0.02
0.01 0.01 0.01 0.01 0.01 0.02 0.02 0.02 0.02 0.02 0.03 0.03 0.04 0.05 0.04 0.03 0.03 0.04 0.07 0.08 0.06 0.05 0.05 0.06 0.08 0.10 0.10 0.08 0.06 0.07 0.06 0.04 0.03 0.02 0.02 0.02 0.02 0.02 0.02 0.02 0.04 0.04 0.03
0.01 0.01 0.00 0.00 0.01 0.01 0.02 0.02 0.03 0.03 0.03 0.03 0.04 0.05 0.05 0.05 0.04 0.04 0.03 0.06 0.07 0.07 0.06 0.06 0.06 0.08 0.10 0.09 0.07 0.07 0.08 0.06 0.03 0.02 0.02 0.01 0.01 0.01 0.02 0.02 0.03 0.05 0.05
0.01 0.01 0.00 0.00 0.00 0.01 0.01 0.02 0.02 0.03 0.04 0.04 0.03 0.05 0.06 0.05 0.05 0.04 0.03 0.03 0.04 0.05 0.04 0.04 0.05 0.06 0.07 0.08 0.07 0.07 0.07 0.07 0.05 0.03 0.02 0.01 0.01 0.01 0.01 0.02 0.02 0.06 0.09
0.01 0.01 0.01 0.00 0.01 0.01 0.01 0.01 0.02 0.02 0.03 0.03 0.03 0.04 0.05 0.05 0.06 0.06 0.04 0.04 0.04 0.04 0.04 0.03 0.04 0.04 0.05 0.05 0.06 0.06 0.06 0.06 0.06 0.05 0.04 0.02 0.01 0.01 0.01 0.01 0.02 0.03 0.06
0.02 0.01 0.01 0.01 0.00 0.01 0.01 0.01 0.01 0.02 0.02 0.02 0.03 0.03 0.05 0.05 0.05 0.05 0.05 0.04 0.04 0.04 0.04 0.04 0.03 0.03 0.03 0.04 0.04 0.05 0.05 0.06 0.06 0.06 0.06 0.05 0.03 0.02 0.01 0.01 0.01 0.02 0.03
MSLP
1018.52 1018.18 1017.89 1017.66 1017.49 1017.35 1017.23 1017.10 1016.92 1016.70 1016.43 1016.14 1015.85 1015.61 1015.44 1015.33 1015.29 1015.30 1015.34 1015.39 1015.45 1015.50 1015.56 1015.62 1015.69 1015.78 1015.86 1015.93 1015.97 1015.97 1015.92 1015.84 1015.72 1015.59 1015.47 1015.37 1015.29 1015.24 1015.22 1015.22 1015.24 1015.28 1015.35
1018.37 1018.05 1017.78 1017.55 1017.38 1017.25 1017.13 1016.99 1016.81 1016.58 1016.30 1016.01 1015.73 1015.50 1015.34 1015.26 1015.24 1015.28 1015.35 1015.44 1015.53 1015.62 1015.70 1015.78 1015.87 1015.95 1016.01 1016.06 1016.06 1016.03 1015.96 1015.86 1015.75 1015.64 1015.55 1015.48 1015.43 1015.41 1015.39 1015.38 1015.39 1015.40 1015.44
1018.20 1017.93 1017.69 1017.49 1017.34 1017.23 1017.11 1016.97 1016.79 1016.56 1016.28 1015.99 1015.71 1015.48 1015.32 1015.24 1015.23 1015.27 1015.34 1015.44 1015.54 1015.63 1015.73 1015.82 1015.92 1016.00 1016.07 1016.11 1016.11 1016.07 1016.00 1015.91 1015.82 1015.74 1015.68 1015.64 1015.62 1015.60 1015.58 1015.56 1015.53 1015.51 1015.51
1018.07 1017.86 1017.67 1017.52 1017.41 1017.32 1017.22 1017.09 1016.90 1016.66 1016.38 1016.08 1015.79 1015.55 1015.38 1015.28 1015.24 1015.26 1015.31 1015.37 1015.45 1015.54 1015.64 1015.74 1015.85 1015.95 1016.04 1016.10 1016.12 1016.11 1016.07 1016.01 1015.95 1015.90 1015.87 1015.85 1015.85 1015.83 1015.80 1015.75 1015.69 1015.63 1015.60
1018.00 1017.86 1017.74 1017.65 1017.59 1017.53 1017.45 1017.32 1017.13 1016.88 1016.58 1016.27 1015.97 1015.71 1015.51 1015.37 1015.29 1015.26 1015.26 1015.28 1015.32 1015.38 1015.47 1015.58 1015.70 1015.84 1015.97 1016.07 1016.14 1016.18 1016.18 1016.17 1016.15 1016.13 1016.12 1016.11 1016.11 1016.08 1016.03 1015.96 1015.86 1015.77 1015.70
1018.00 1017.94 1017.90 1017.88 1017.86 1017.84 1017.77 1017.64 1017.44 1017.18 1016.86 1016.53 1016.21 1015.93 1015.71 1015.53 1015.41 1015.31 1015.25 1015.21 1015.20 1015.22 1015.28 1015.39 1015.54 1015.71 1015.89 1016.05 1016.18 1016.28 1016.34 1016.37 1016.38 1016.39 1016.39 1016.38 1016.36 1016.32 1016.25 1016.15 1016.03 1015.92 1015.83
1018.05 1018.06 1018.10 1018.14 1018.18 1018.18 1018.12 1017.99 1017.78 1017.49 1017.17 1016.82 1016.50 1016.21 1015.97 1015.76 1015.60 1015.45 1015.33 1015.23 1015.15 1015.13 1015.16 1015.25 1015.41 1015.61 1015.82 1016.04 1016.23 1016.38 1016.49 1016.56 1016.60 1016.62 1016.62 1016.61 1016.57 1016.51 1016.42 1016.31 1016.19 1016.07 1015.97
1018.11 1018.19 1018.28 1018.38 1018.46 1018.49 1018.44 1018.31 1018.08 1017.79 1017.46 1017.12 1016.81 1016.53 1016.29 1016.08 1015.89 1015.71 1015.53 1015.37 1015.23 1015.15 1015.14 1015.21 1015.35 1015.56 1015.80 1016.05 1016.27 1016.46 1016.60 1016.70 1016.75 1016.78 1016.78 1016.75 1016.70 1016.63 1016.53 1016.42 1016.31 1016.20 1016.12
1018.15 1018.27 1018.41 1018.55 1018.66 1018.72 1018.68 1018.54 1018.32 1018.04 1017.72 1017.41 1017.13 1016.88 1016.66 1016.47 1016.28 1016.08 1015.86 1015.65 1015.46 1015.33 1015.26 1015.29 1015.40 1015.58 1015.81 1016.06 1016.29 1016.49 1016.65 1016.75 1016.82 1016.84 1016.83 1016.80 1016.74 1016.67 1016.58 1016.49 1016.39 1016.32 1016.26
1018.13 1018.27 1018.44 1018.62 1018.76 1018.84 1018.82 1018.70 1018.50 1018.24 1017.96 1017.69 1017.46 1017.26 1017.09 1016.92 1016.75 1016.54 1016.31 1016.06 1015.82 1015.63 1015.51 1015.47 1015.53 1015.66 1015.86 1016.08 1016.29 1016.48 1016.63 1016.73 1016.79 1016.81 1016.81 1016.77 1016.72 1016.66 1016.59 1016.52 1016.46 1016.41 1016.39
1018.04 1018.19 1018.39 1018.60 1018.77 1018.87 1018.88 1018.79 1018.63 1018.41 1018.19 1017.98 1017.81 1017.67 1017.54 1017.42 1017.26 1017.06 1016.81 1016.54 1016.27 1016.02 1015.84 1015.74 1015.73 1015.80 1015.94 1016.11 1016.28 1016.44 1016.58 1016.67 1016.74 1016.76 1016.77 1016.75 1016.71 1016.67 1016.62 1016.57 1016.54 1016.52 1016.53
1017.92 1018.08 1018.29 1018.51 1018.71 1018.85 1018.90 1018.86 1018.74 1018.59 1018.42 1018.28 1018.17 1018.08 1018.01 1017.91 1017.78 1017.59 1017.34 1017.04 1016.74 1016.46 1016.23 1016.07 1016.00 1016.00 1016.07 1016.18 1016.31 1016.44 1016.55 1016.65 1016.72 1016.77 1016.80 1016.80 1016.78 1016.75 1016.72 1016.69 1016.66 1016.66 1016.68
1017.83 1017.97 1018.18 1018.43 1018.65 1018.82 1018.92 1018.93 1018.88 1018.79 1018.69 1018.60 1018.54 1018.50 1018.45 1018.38 1018.26 1018.07 1017.82 1017.52 1017.21 1016.90 1016.64 1016.44 1016.32 1016.26 1016.28 1016.33 1016.42 1016.53 1016.63 1016.74 1016.83 1016.91 1016.96 1016.99 1017.00 1016.98 1016.95 1016.91 1016.88 1016.87 1016.87
1017.83 1017.94 1018.15 1018.39 1018.63 1018.83 1018.97 1019.04 1019.05 1019.02 1018.98 1018.94 1018.91 1018.89 1018.86 1018.79 1018.67 1018.48 1018.24 1017.95 1017.64 1017.33 1017.06 1016.85 1016.69 1016.60 1016.57 1016.59 1016.65 1016.74 1016.86 1016.98 1017.10 1017.22 1017.31 1017.37 1017.39 1017.38 1017.33 1017.27 1017.21 1017.16 1017.13
1017.97 1018.05 1018.22 1018.45 1018.69 1018.91 1019.08 1019.19 1019.25 1019.27 1019.28 1019.28 1019.27 1019.26 1019.22 1019.14 1019.01 1018.83 1018.59 1018.31 1018.02 1017.74 1017.49 1017.28 1017.12 1017.02 1016.97 1016.98 1017.02 1017.11 1017.24 1017.38 1017.54 1017.70 1017.83 1017.92 1017.95 1017.93 1017.87 1017.77 1017.65 1017.55 1017.47
1018.32 1018.34 1018.45 1018.64 1018.85 1019.06 1019.24 1019.38 1019.48 1019.54 1019.58 1019.60 1019.60 1019.58 1019.53 1019.44 1019.30 1019.11 1018.88 1018.64 1018.38 1018.14 1017.93 1017.75 1017.61 1017.52 1017.47 1017.46 1017.51 1017.60 1017.74 1017.92 1018.12 1018.31 1018.47 1018.59 1018.63 1018.60 1018.51 1018.37 1018.21 1018.05 1017.91
1018.87 1018.80 1018.84 1018.95 1019.10 1019.28 1019.45 1019.59 1019.71 1019.80 1019.86 1019.90 1019.90 1019.87 1019.81 1019.70 1019.55 1019.37 1019.17 1018.95 1018.75 1018.56 1018.39 1018.25 1018.14 1018.06 1018.02 1018.02 1018.07 1018.17 1018.32 1018.52 1018.74 1018.96 1019.16 1019.29 1019.35 1019.32 1019.21 1019.04 1018.83 1018.63 1018.45
1019.60 1019.44 1019.36 1019.37 1019.44 1019.56 1019.69 1019.82 1019.94 1020.04 1020.12 1020.17 1020.18 1020.15 1020.07 1019.96 1019.82 1019.65 1019.47 1019.30 1019.14 1019.00 1018.88 1018.78 1018.70 1018.64 1018.61 1018.61 1018.65 1018.74 1018.90 1019.10 1019.34 1019.58 1019.80 1019.96 1020.04 1020.03 1019.92 1019.74 1019.52 1019.29 1019.08
1020.48 1020.20 1020.01 1019.90 1019.87 1019.90 1019.97 1020.07 1020.17 1020.28 1020.36 1020.42 1020.45 1020.43 1020.36 1020.26 1020.14 1019.99 1019.84 1019.70 1019.59 1019.49 1019.41 1019.34 1019.28 1019.23 1019.19 1019.18 1019.21 1019.29 1019.43 1019.62 1019.86 1020.12 1020.36 1020.55 1020.66 1020.68 1020.60 1020.44 1020.24 1020.01 1019.80
1021.42 1021.04 1020.74 1020.51 1020.37 1020.31 1020.31 1020.36 1020.44 1020.54 1020.63 1020.70 1020.75 1020.75 1020.71 1020.64 1020.53 1020.42 1020.30 1020.19 1020.10 1020.03 1019.96 1019.91 1019.86 1019.80 1019.76 1019.73 1019.74 1019.79 1019.91 1020.09 1020.31 1020.57 1020.82 1021.04 1021.19 1021.26 1021.25 1021.14 1020.98 1020.79 1020.60
1022.38 1021.93 1021.52 1021.20 1020.96 1020.80 1020.73 1020.72 1020.78 1020.86 1020.96 1021.05 1021.12 1021.16 1021.15 1021.11 1021.04 1020.95 1020.86 1020.77 1020.69 1020.62 1020.56 1020.51 1020.44 1020.38 1020.32 1020.27 1020.25 1020.28 1020.36 1020.51 1020.72 1020.96 1021.23 1021.47 1021.67 1021.81 1021.86 1021.84 1021.75 1021.62 1021.46
1023.30 1022.80 1022.34 1021.94 1021.62 1021.40 1021.26 1021.21 1021.23 1021.30 1021.40 1021.51 1021.60 1021.67 1021.71 1021.70 1021.66 1021.60 1021.52 1021.43 1021.35 1021.27 1021.20 1021.13 1021.05 1020.97 1020.90 1020.83 1020.79 1020.79 1020.85 1020.96 1021.14 1021.36 1021.62 1021.88 1022.13 1022.33 1022.47 1022.54 1022.53 1022.47 1022.36
1024.12 1023.63 1023.15 1022.73 1022.38 1022.11 1021.93 1021.84 1021.83 1021.89 1021.98 1022.10 1022.22 1022.32 1022.39 1022.41 1022.40 1022.35 1022.27 1022.18 1022.08 1021.98 1021.88 1021.78 1021.69 1021.60 1021.52 1021.45 1021.40 1021.39 1021.42 1021.50 1021.64 1021.83 1022.07 1022.33 1022.60 1022.85 1023.06 1023.22 1023.30 1023.31 1023.25
1024.83 1024.39 1023.95 1023.55 1023.21 1022.94 1022.75 1022.64 1022.61 1022.65 1022.73 1022.85 1022.98 1023.10 1023.19 1023.24 1023.24 1023.19 1023.11 1022.99 1022.86 1022.73 1022.60 1022.48 1022.38 1022.29 1022.21 1022.15 1022.11 1022.09 1022.10 1022.15 1022.25 1022.40 1022.59 1022.83 1023.10 1023.38 1023.64 1023.86 1024.02 1024.08 1024.06
1025.42 1025.07 1024.71 1024.39 1024.10 1023.86 1023.68 1023.58 1023.54 1023.56 1023.63 1023.74 1023.87 1023.99 1024.08 1024.14 1024.14 1024.09 1023.99 1023.84 1023.68 1023.51 1023.34 1023.20 1023.09 1023.01 1022.96 1022.93 1022.90 1022.89 1022.89 1022.91 1022.96 1023.05 1023.19 1023.38 1023.62 1023.89 1024.17 1024.43 1024.63 1024.75 1024.76
1025.90 1025.67 1025.43 1025.21 1025.00 1024.83 1024.70 1024.61 1024.58 1024.58 1024.64 1024.73 1024.84 1024.95 1025.03 1025.08 1025.08 1025.01 1024.88 1024.70 1024.49 1024.28 1024.09 1023.93 1023.82 1023.76 1023.73 1023.73 1023.74 1023.75 1023.75 1023.74 1023.74 1023.76 1023.82 1023.94 1024.12 1024.35 1024.61 1024.88 1025.10 1025.25 1025.30
Thickness
5664 5667 5670 5672 5675 5678 5679 5681 5683 5684 5686 5687 5688 5690 5691 5692 5693 5694 5695 5696 5697 5697 5698 5699 5700 5701 5702 5703 5703 5703 5704 5704 5705 5705 5706 5708 5709 5709 5710 5710 5710 5710 5710
5659 5662 5665 5668 5671 5673 5675 5677 5678 5680 5681 5683 5684 5685 5686 5688 5689 5690 5691 5692 5692 5693 5694 5695 5696 5696 5697 5698 5699 5699 5700 5700 5700 5701 5702 5704 5705 5706 5706 5706 5707 5707 5707
5656 5658 5661 5664 5666 5668 5670 5672 5673 5674 5676 5678 5679 5680 5682 5683 5684 5685 5686 5687 5688 5689 5689 5690 5691 5691 5692 5693 5694 5695 5695 5695 5696 5697 5698 5699 5701 5702 5702 5703 5703 5704 5704
5651 5653 5656 5659 5661 5662 5664 5666 5668 5669 5671 5672 5674 5675 5676 5678 5679 5680 5681 5682 5683 5684 5685 5685 5686 5687 5687 5688 5689 5690 5691 5691 5692 5693 5694 5695 5697 5698 5699 5699 5700 5700 5700
5645 5647 5650 5652 5654 5656 5658 5660 5661 5663 5665 5666 5668 5669 5671 5672 5673 5675 5676 5677 5678 5679 5679 5680 5681 5681 5682 5683 5684 5685 5686 5687 5688 5689 5690 5691 5692 5694 5695 5695 5696 5696 5696
5638 5640 5643 5645 5647 5649 5651 5652 5654 5656 5658 5659 5661 5663 5664 5666 5667 5668 5670 5671 5672 5673 5674 5674 5675 5676 5677 5678 5679 5680 5681 5682 5683 5684 5685 5687 5688 5689 5691 5691 5692 5692 5692
5631 5633 5635 5637 5639 5641 5643 5645 5647 5649 5650 5652 5654 5656 5657 5659 5660 5662 5663 5665 5666 5667 5668 5668 5669 5670 5671 5672 5673 5674 5675 5677 5678 5679 5681 5682 5684 5685 5686 5687 5688 5688 5688
5622 5624 5626 5628 5630 5633 5635 5637 5639 5641 5642 5644 5646 5648 5649 5651 5653 5655 5656 5658 5659 5660 5662 5662 5663 5664 5665 5666 5668 5669 5670 5671 5672 5674 5675 5677 5679 5680 5682 5683 5683 5684 5684
5613 5615 5617 5618 5620 5622 5625 5628 5630 5632 5634 5636 5638 5640 5642 5643 5646 5647 5648 5650 5652 5653 5655 5656 5657 5658 5659 5660 5661 5662 5664 5665 5666 5668 5670 5672 5674 5676 5677 5678 5679 5679 5679
5604 5606 5606 5608 5610 5612 5615 5617 5620 5622 5625 5627 5629 5631 5633 5636 5637 5639 5640 5642 5644 5646 5647 5649 5650 5651 5652 5653 5655 5656 5657 5659 5660 5662 5664 5666 5668 5670 5672 5673 5674 5674 5674
5595 5595 5596 5598 5600 5603 5605 5607 5610 5612 5615 5617 5620 5622 5624 5627 5629 5630 5632 5634 5636 5638 5639 5641 5642 5643 5644 5646 5647 5649 5650 5651 5653 5655 5657 5660 5662 5664 5666 5667 5668 5669 5669
5583 5584 5586 5588 5590 5592 5594 5597 5599 5601 5604 5606 5609 5612 5615 5617 5619 5621 5623 5625 5627 5629 5631 5632 5634 5635 5636 5637 5639 5641 5642 5644 5646 5648 5650 5653 5656 5658 5660 5661 5662 5663 5664
5572 5574 5575 5577 5579 5581 5584 5586 5588 5590 5593 5596 5599 5601 5604 5607 5609 5612 5614 5616 5618 5620 5622 5623 5625 5626 5627 5629 5631 5632 5634 5636 5638 5640 5643 5646 5648 5651 5653 5655 5656 5657 5658
5563 5564 5565 5567 5569 5571 5572 5574 5576 5578 5581 5584 5587 5590 5593 5596 5599 5601 5603 5605 5608 5610 5612 5614 5615 5617 5619 5620 5622 5624 5626 5627 5629 5632 5635 5638 5641 5643 5646 5648 5649 5650 5651
5552 5553 5554 5556 5558 5560 5561 5563 5564 5566 5569 5572 5575 5579 5582 5584 5587 5589 5592 5594 5597 5599 5601 5603 5605 5607 5609 5611 5613 5615 5617 5619 5621 5623 5627 5629 5632 5635 5638 5640 5642 5644 5645
5541 5541 5543 5545 5546 5548 5550 5551 5553 5554 5557 5560 5563 5566 5570 5573 5575 5578 5580 5583 5585 5588 5590 5592 5594 5597 5599 5601 5603 5606 5608 5610 5612 5615 5618 5621 5623 5626 5629 5632 5634 5636 5638
5530 5530 5532 5534 5534 5536 5538 5540 5541 5543 5545 5548 5551 5554 5557 5560 5563 5566 5568 5571 5573 5576 5578 5581 5584 5586 5588 5590 5592 5595 5598 5600 5603 5606 5609 5612 5614 5617 5620 5623 5625 5628 5630
5518 5519 5520 5522 5522 5524 5525 5527 5529 5531 5533 5536 5538 5541 5544 5547 5550 5553 5555 5558 5560 5563 5566 5569 5572 5574 5576 5578 5581 5584 5587 5590 5593 5596 5599 5602 5605 5607 5610 5613 5616 5619 5621
5507 5507 5508 5509 5510 5511 5512 5514 5516 5517 5519 5522 5524 5527 5530 5533 5536 5539 5541 5544 5547 5550 5553 5555 5558 5560 5563 5566 5569 5572 5576 5579 5582 5585 5588 5592 5594 5597 5600 5603 5606 5609 5612
5495 5494 5494 5496 5497 5498 5499 5501 5502 5504 5506 5507 5510 5512 5515 5518 5521 5524 5527 5530 5532 5535 5538 5541 5544 5547 5549 5552 5556 5560 5564 5567 5571 5574 5577 5580 5584 5586 5589 5592 5595 5598 5602
5482 5482 5481 5482 5482 5484 5485 5487 5488 5489 5491 5492 5494 5497 5500 5503 5505 5508 5511 5514 5517 5520 5523 5526 5529 5533 5535 5538 5541 5546 5551 5555 5559 5562 5565 5568 5571 5574 5577 5581 5584 5588 5592
5469 5469 5468 5468 5469 5469 5470 5471 5472 5474 5476 5477 5478 5481 5484 5487 5489 5492 5495 5499 5502 5505 5508 5511 5514 5517 5519 5522 5525 5529 5535 5541 5545 5549 5552 5555 5558 5561 5565 5569 5573 5577 5581
5457 5456 5456 5455 5455 5455 5456 5457 5459 5461 5461 5462 5464 5466 5468 5471 5474 5477 5480 5483 5487 5489 5492 5495 5498 5502 5504 5507 5509 5512 5517 5524 5527 5535 5538 5542 5545 5548 5551 5556 5560 5564 5569
5446 5444 5443 5442 5442 5442 5442 5443 5444 5444 5445 5444 5446 5449 5452 5455 5458 5461 5464 5467 5470 5473 5476 5479 5483 5486 5489 5492 5494 5497 5501 5506 5509 5518 5523 5526 5530 5534 5538 5542 5547 5551 5556
5435 5433 5431 5430 5429 5429 5429 5429 5429 5429 5429 5430 5432 5435 5438 5440 5443 5445 5448 5451 5454 5457 5460 5464 5467 5470 5473 5477 5480 5483 5485 5489 5493 5498 5507 5511 5514 5519 5524 5528 5533 5538 5543
5423 5421 5419 5417 5416 5416 5415 5415 5414 5414 5415 5416 5417 5419 5422 5424 5426 5429 5431 5435 5438 5441 5444 5448 5452 5455 5459 5463 5466 5469 5472 5476 5480 5482 5489 5494 5499 5504 5509 5514 5519 5524 5529